Weather History for Oceana NAS, VA

Change the Weather History Date:

Friday, January 25, 2013

  Actual Average Record
Temperature  
Mean Temperature 24 °F -  
Max Temperature 30 °F 45 °F 62 °F (1997)
Min Temperature 19 °F 30 °F 18 °F (2014)
Degree Days  
Heating Degree Days 40    
Moisture  
Dew Point 18 °F    
Average Humidity 71    
Maximum Humidity 100    
Minimum Humidity 46    
Precipitation  
Precipitation 0.14 in - - ()
Snow  
Snow 0.00 in - - ()
Snow Depth 1.00 in    
Sea Level Pressure  
Sea Level Pressure 30.29 in    
Wind  
Wind Speed 5 mph (WSW)    
Max Wind Speed 10 mph    
Max Gust Speed -    
Visibility 7 miles    
Events Fog , Snow    
Averages and records for this station are not official NWS values.
T = Trace of Precipitation, MM = Missing Value Source: NWS Daily Summary

Daily Weather History Graph

Daily Weather History Graph

Search for Another Location

Airport:

Trip Planner

Search our weather history database for the weather conditions in past years. The results will help you decide how hot, cold, wet, or windy it might be!

Date:

Astronomy

Jan. 25, 2013 Rise Set
Actual Time 7:11 AM EST 5:22 PM EST
Civil Twilight 6:43 AM EST 5:49 PM EST
Nautical Twilight 6:12 AM EST 6:21 PM EST
Astronomical Twilight 5:41 AM EST 6:52 PM EST
Moon 4:17 PM EST (1/25) 5:49 AM EST (1/25)
Length of Visible Light 11h 06m
Length of Day
10h 11m
Waxing Gibbous, 98% of the Moon is Illuminated
Jan 25
Waxing Gibbous
Jan 26
Full
Feb 3
Last Quarter
Feb 10
New
Feb 17
First Quarter

Hourly Weather History & Observations

Time (EST) Temp. Windchill Dew Point Humidity Pressure Visibility Wind Dir Wind Speed Gust Speed Precip Events Conditions
12:56 AM 25.0 °F 16.3 °F 7.0 °F 46% 30.51 in 10.0 mi NNW 8.1 mph - N/A   Partly Cloudy
1:56 AM 25.0 °F 16.3 °F 9.0 °F 51% 30.51 in 10.0 mi NNW 8.1 mph - N/A   Scattered Clouds
2:56 AM 24.1 °F 19.7 °F 9.0 °F 53% 30.50 in 10.0 mi North 3.5 mph - N/A   Mostly Cloudy
3:56 AM 24.1 °F 18.2 °F 10.0 °F 55% 30.49 in 10.0 mi NNE 4.6 mph - N/A   Mostly Cloudy
4:56 AM 21.9 °F 15.7 °F 10.9 °F 63% 30.49 in 10.0 mi SW 4.6 mph - N/A   Mostly Cloudy
5:56 AM 19.9 °F 12.1 °F 10.9 °F 68% 30.51 in 10.0 mi WSW 5.8 mph - N/A   Mostly Cloudy
6:56 AM 21.0 °F 16.2 °F 10.9 °F 65% 30.51 in 10.0 mi WSW 3.5 mph - N/A   Mostly Cloudy
7:56 AM 21.9 °F 14.5 °F 12.9 °F 68% 30.50 in 10.0 mi West 5.8 mph - N/A   Mostly Cloudy
8:56 AM 27.0 °F 19.5 °F 12.0 °F 53% 30.49 in 10.0 mi WNW 6.9 mph - N/A   Overcast
9:56 AM 28.9 °F 25.2 °F 12.9 °F 51% 30.46 in 10.0 mi WNW 3.5 mph - N/A   Overcast
10:56 AM 28.9 °F - 12.9 °F 51% 30.44 in 10.0 mi Calm Calm - N/A   Overcast
11:56 AM 30.0 °F - 12.9 °F 49% 30.38 in 10.0 mi Calm Calm - N/A   Overcast
12:56 PM 30.9 °F 26.2 °F 14.0 °F 50% 30.35 in 10.0 mi WSW 4.6 mph - N/A   Overcast
1:56 PM 30.9 °F 27.5 °F 14.0 °F 50% 30.29 in 10.0 mi SSE 3.5 mph - N/A   Overcast
2:56 PM 30.9 °F - 15.1 °F 52% 30.27 in 10.0 mi Calm Calm - N/A   Overcast
3:26 PM 30.2 °F 25.4 °F 15.8 °F 55% 30.24 in 9.0 mi SSW 4.6 mph - 0.00 in Snow Light Snow
3:36 PM 30.2 °F 23.4 °F 17.6 °F 60% 30.23 in 2.5 mi South 6.9 mph - 0.00 in Snow Light Snow
3:48 PM 28.4 °F 20.4 °F 19.4 °F 69% 30.21 in 1.5 mi SSE 8.1 mph - 0.00 in Snow Light Snow
3:56 PM 28.0 °F 22.8 °F 21.9 °F 78% 30.22 in 1.0 mi South 4.6 mph - 0.00 in Snow Light Snow
4:16 PM 26.6 °F 21.2 °F 24.8 °F 93% 30.19 in 0.2 mi South 4.6 mph - 0.01 in Fog , Snow Heavy Snow
4:39 PM 26.6 °F 20.0 °F 23.0 °F 86% 30.20 in 0.2 mi SW 5.8 mph - 0.03 in Snow Heavy Snow
4:56 PM 27.0 °F 20.5 °F 23.0 °F 85% 30.21 in 0.2 mi SW 5.8 mph - 0.05 in Snow Heavy Snow
5:17 PM 26.6 °F 21.2 °F 26.6 °F 100% 30.19 in 0.5 mi SW 4.6 mph - 0.02 in Snow Snow
5:42 PM 26.6 °F 20.0 °F 23.0 °F 86% 30.18 in 1.0 mi SW 5.8 mph - 0.04 in Snow Light Snow
5:56 PM 26.1 °F 21.9 °F 23.0 °F 88% 30.17 in 1.8 mi SW 3.5 mph - 0.05 in Snow Light Snow
6:56 PM 26.1 °F - 24.1 °F 92% 30.17 in 1.8 mi Calm Calm - 0.02 in Snow Light Snow
7:56 PM 26.1 °F 18.4 °F 25.0 °F 96% 30.13 in 2.0 mi West 6.9 mph - 0.02 in Snow Light Snow
8:34 PM 26.6 °F 20.0 °F 24.8 °F 93% 30.10 in 9.0 mi West 5.8 mph - 0.00 in   Overcast
8:56 PM 27.0 °F 20.5 °F 23.0 °F 85% 30.11 in 10.0 mi West 5.8 mph - 0.00 in   Overcast
9:56 PM 27.0 °F 18.0 °F 23.0 °F 85% 30.11 in 10.0 mi West 9.2 mph - N/A   Overcast
10:56 PM 27.0 °F 17.3 °F 24.1 °F 89% 30.10 in 10.0 mi West 10.4 mph - N/A   Mostly Cloudy
11:23 PM 26.6 °F 19.1 °F 23.0 °F 86% 30.09 in 10.0 mi West 6.9 mph - N/A   Mostly Cloudy
11:56 PM 26.1 °F 18.4 °F 21.9 °F 84% 30.10 in 10.0 mi West 6.9 mph - N/A   Mostly Cloudy